User: anonymous   Login
Location: Vancouver
(49.2500°N, 123.1330°W)
Time: 14:57:26
(UTC-08:00)
Language:

YAOGAN 6 - Orbit

View from above orbital plane
View from above orbital plane
View from above satellite
View from above satellite

Ground track
Ground track

The orbit data is extracted from the following two-line orbital elements,

1 34839U 09021A   14362.43046034  .00006823  00000-0  30119-3 0  3427
2 34839 097.2660 071.4717 0030310 269.5183 219.2690 15.21648385315222
Epoch (UTC): 28 December 2014 10:19:51
Eccentricity: 0.0030310
inclination: 97.2660°
perigee height: 480 km
apogee height: 522 km
right ascension of ascending node: 71.4717°
argument of perigee: 269.5183°
revolutions per day: 15.21648385
mean anomaly at epoch: 219.2690°
orbit number at epoch: 31522

The dashed part of the orbit path shows where the satellite is in the earth's shadow,  

DLR